Live-Position
3D-Globus wird geladen...
Über Starlink 4386
Group: 3 satellites
Beschreibung wird geladen...
Nächste Überflüge
Passes for default location (London). Set your location on the main map for personalized predictions.
Höhenverlauf
Loading altitude history...
No altitude history available
Zweizeiliger Elementsatz
1 53649U 22105B 26126.50003471 .00083849 00000-0 32264-2 0 9995
2 53649 97.6031 8.9768 0001736 83.4294 26.9880 15.26040955 5791
Epoch: 6. Mai 2026 •
Age: 5 hours
Aktueller Status
Höhe 506.6 km
Geschwindigkeit 7.61 km/s
Subsatellitenpunkt -46.52°S,
58.12°E
Startdatum 31. Aug. 2022
Alter 3.6 years
Typ internet
Startgruppe
Falcon 9 •
Group 3-4 •
41 satellites
Starlink 4622
53648
Starlink 4380 53650
Starlink 4388 53651
Starlink 4374 53652
Starlink 4390 53653
Starlink 4420 53654
Starlink 4470 53655
Starlink 4466 53656
Starlink 4452 53658
Starlink 4473 53660
Starlink 4472 53661
Starlink 4357 53662
Starlink 4457 53663
Starlink 4471 53664
Starlink 4334 53665
Starlink 4406 53667
Starlink 4458 53668
Starlink 4464 53669
Starlink 4459 53670
Starlink 4440 53671
...and 20 more
Technische Details
Klassifizierung Payload
Masse 300.00 kg
Trockenmasse 290.00 kg
Gesamtmasse 300.00 kg
Länge 0.20 m
Durchmesser 2.80 m
Spannweite 9.00 m
Form Box + pan
Hersteller SPXS
Bus-Typ Starlink
Phasenstatus In Orbit
Besitzer/Staat SPXS/US
Most Searched
Loading...